Date,TemperatureHighF,TemperatureAvgF,TemperatureLowF,DewpointHighF,DewpointAvgF,DewpointLowF,HumidityHigh,HumidityAvg,HumidityLow,PressureMaxIn,PressureMinIn,WindSpeedMaxMPH,WindSpeedAvgMPH,GustSpeedMaxMPH,PrecipitationSumIn
2013-1-1,78.7,60.7,46.9,61.4,54.2,45.3,97,81,55,30.21,30.02,20,2,36,0.00
2013-1-2,80.7,64.8,48.5,68.1,59.7,46.9,98,85,62,30.05,29.95,15,2,36,0.00
2013-1-3,70.4,63.3,56.8,65.4,61.0,54.0,96,92,83,30.18,30.01,17,2,36,0.00
2013-1-4,58.0,55.4,51.9,56.9,54.2,50.7,96,96,95,30.28,30.16,16,4,36,0.00
2013-1-5,72.6,59.8,47.6,62.1,54.8,45.3,95,84,69,30.30,30.18,13,2,36,0.00
2013-1-6,79.8,66.6,59.4,68.3,61.8,56.0,93,85,67,30.21,30.04,14,2,36,0.00
2013-1-7,68.0,60.5,52.4,59.3,55.8,48.8,95,85,73,30.23,30.12,18,4,36,0.00
2013-1-8,79.7,69.0,60.4,70.9,65.6,58.3,97,89,71,30.22,30.13,14,1,36,0.00
2013-1-9,81.0,72.7,66.5,72.3,69.1,65.4,98,89,73,30.30,30.19,15,2,15,0.00
2013-1-10,82.7,71.0,59.8,70.8,65.4,57.6,98,84,56,30.31,30.22,22,4,22,0.00
2013-1-11,81.7,67.1,55.6,70.6,61.5,54.4,99,84,56,30.25,30.14,17,2,22,0.00
2013-1-12,81.7,66.5,53.5,69.6,60.9,52.4,99,84,57,30.19,30.08,15,1,22,0.00
2013-1-13,81.5,66.5,53.8,68.9,60.5,52.4,98,83,56,30.16,30.05,13,1,22,0.00
2013-1-14,81.5,66.4,53.9,67.9,60.2,52.5,99,82,56,30.18,30.09,18,2,22,0.00
2013-1-15,80.8,68.7,58.6,69.3,62.9,57.2,97,83,60,30.14,30.04,12,2,22,0.00
2013-1-16,81.0,66.0,55.0,67.3,59.7,53.1,98,82,52,30.10,29.98,13,1,22,0.00
2013-1-17,77.7,59.3,49.9,69.3,54.6,41.1,99,85,70,30.11,29.96,28,5,28,0.00
2013-1-18,66.2,52.3,40.3,54.9,45.5,34.4,87,78,65,30.29,30.11,25,6,28,0.00
2013-1-19,73.0,61.7,52.6,61.3,56.0,49.5,92,82,65,30.29,30.14,17,4,28,0.00
2013-1-20,72.7,62.7,56.2,61.7,57.2,50.7,94,83,65,30.18,30.04,15,2,28,0.00
2013-1-21,73.9,63.3,56.4,60.5,56.3,52.2,90,79,62,30.09,29.98,10,1,28,0.00
2013-1-22,61.1,53.5,39.5,52.3,41.0,34.8,86,65,39,30.27,30.06,16,3,16,0.00
2013-1-23,66.3,47.8,31.7,41.9,35.1,29.4,94,66,31,30.36,30.26,13,1,17,0.00
2013-1-24,72.5,53.2,35.0,52.5,44.2,32.0,95,74,46,30.31,30.19,15,2,18,0.00
2013-1-25,75.0,59.9,46.4,58.3,50.6,42.8,97,74,45,30.30,30.15,16,1,18,0.00
2013-1-26,75.8,56.7,39.9,60.6,50.1,37.7,98,80,54,30.26,30.15,13,1,18,0.00
2013-1-27,78.6,61.2,44.9,62.7,55.3,43.5,98,83,54,30.31,30.21,14,1,18,0.00
2013-1-28,79.0,67.7,54.9,65.2,61.4,52.9,97,81,61,30.33,30.22,19,3,19,0.00
2013-1-29,83.4,69.4,57.1,69.9,63.0,55.5,98,82,53,30.25,30.08,17,4,19,0.00
2013-1-30,83.9,73.3,62.6,67.2,65.2,61.0,96,77,55,30.10,29.85,28,8,28,0.00
2013-1-31,71.2,54.3,33.8,66.3,42.1,29.1,93,67,32,30.23,29.85,23,3,25,0.00
2013-2-1,68.8,47.4,31.1,38.1,32.4,27.6,91,62,26,30.34,30.22,14,2,25,0.00
2013-2-2,70.9,49.5,31.2,48.7,37.4,28.1,93,68,34,30.31,30.13,17,1,25,0.00
2013-2-3,69.5,52.0,33.2,53.5,41.1,30.1,93,70,35,30.18,30.04,19,2,25,0.00
2013-2-4,69.6,50.9,32.9,47.1,37.8,30.4,96,66,32,30.13,30.03,14,1,25,0.00
2013-2-5,75.5,54.9,35.4,53.8,44.5,32.4,95,71,45,30.10,29.98,15,1,25,0.00
2013-2-6,76.2,64.6,54.2,64.4,58.1,50.8,91,80,60,30.11,30.01,9,0,25,0.00
2013-2-7,80.2,68.6,55.0,66.0,61.3,53.3,97,79,57,30.07,29.84,21,4,25,0.00
2013-2-8,77.8,67.9,55.7,65.1,60.5,52.4,92,79,55,30.07,29.85,16,3,25,0.00
2013-2-9,73.3,58.8,45.5,58.3,52.2,43.6,96,80,55,30.21,30.06,16,2,25,0.00
2013-2-10,78.0,63.1,47.0,61.4,54.9,45.1,97,77,53,30.27,30.15,22,5,25,0.00
2013-2-11,82.3,68.4,53.5,64.1,59.7,51.5,96,76,52,30.20,30.05,22,3,25,0.00
2013-2-12,85.3,70.1,54.7,69.3,62.4,53.0,98,78,51,30.09,29.90,18,4,25,0.00
2013-2-13,83.7,70.9,62.0,70.7,66.7,59.8,95,87,63,29.95,29.81,27,6,28,0.00
2013-2-14,64.7,60.3,54.4,61.5,57.9,53.0,96,92,79,30.06,29.91,12,2,28,0.00
2013-2-15,69.3,56.7,47.8,59.0,52.0,45.6,96,85,57,30.08,29.94,11,2,28,0.00
2013-2-16,66.8,53.6,45.3,53.1,43.4,28.0,97,71,45,30.12,29.89,24,4,28,0.00
2013-2-17,53.8,41.1,26.5,28.5,21.6,15.2,82,49,23,30.34,30.12,17,3,28,0.00
2013-2-18,67.4,45.3,21.9,45.9,33.8,18.8,93,68,39,30.37,30.21,19,3,28,0.00
2013-2-19,78.8,59.3,38.4,57.9,49.6,36.3,95,73,46,30.22,30.03,22,3,28,0.00
2013-2-20,74.3,62.0,48.8,58.6,53.6,45.6,95,75,57,30.14,30.00,13,1,28,0.00
2013-2-21,84.0,64.3,46.1,65.5,56.5,43.9,95,78,46,30.11,29.97,16,1,28,0.00
2013-2-22,87.1,71.3,55.9,69.9,63.4,54.5,98,79,47,30.07,29.96,17,3,18,0.00
2013-2-23,88.7,75.3,66.0,69.7,67.2,64.2,96,78,48,29.99,29.84,24,6,26,0.00
2013-2-24,76.8,70.0,63.6,70.3,66.8,61.0,96,90,78,29.95,29.85,11,1,26,0.00
2013-2-25,85.0,72.0,61.7,72.0,65.6,60.3,97,82,55,29.93,29.75,19,2,26,0.00
2013-2-26,78.3,70.0,64.6,71.8,66.1,60.9,96,88,62,29.84,29.70,22,6,26,0.00
2013-2-27,73.5,64.2,55.2,61.7,54.4,48.2,90,72,49,29.96,29.84,16,3,26,0.00
2013-2-28,73.0,64.3,44.1,55.3,50.8,42.2,95,64,38,29.99,29.85,25,6,26,0.00
2013-3-1,66.3,55.5,46.3,48.6,41.8,35.5,86,62,35,29.99,29.88,20,3,20,0.00
2013-3-2,58.5,48.8,38.4,39.6,32.6,28.7,79,55,34,30.02,29.92,29,6,32,0.00
2013-3-3,49.6,41.3,36.3,33.3,31.1,29.3,78,67,51,30.05,29.98,24,4,32,0.00
2013-3-4,65.8,54.5,39.5,36.2,31.5,23.8,79,44,28,30.22,29.99,15,2,23,0.00
2013-3-5,77.0,56.7,32.3,57.4,43.2,29.8,94,65,38,30.17,29.97,20,4,23,0.00
2013-3-6,66.3,58.0,45.4,61.2,40.7,28.5,92,56,26,30.14,29.89,24,7,28,0.00
2013-3-7,68.3,50.6,36.8,43.9,37.5,30.6,89,63,38,30.21,30.11,13,2,28,0.00
2013-3-8,73.8,52.9,32.6,47.0,39.8,30.5,96,67,30,30.22,30.10,13,1,13,0.00
2013-3-9,74.8,57.1,37.7,53.3,46.7,35.7,96,72,40,30.23,30.13,13,1,15,0.00
2013-3-10,78.5,63.1,46.7,58.4,53.4,44.8,96,73,44,30.18,30.07,25,4,25,0.00
2013-3-11,79.1,64.2,45.1,61.7,55.0,43.4,97,75,49,30.11,29.88,19,4,25,0.00
2013-3-12,73.0,66.3,56.5,66.7,61.9,53.8,94,86,78,30.02,29.83,20,6,25,0.00
2013-3-13,74.3,59.6,48.8,53.9,42.1,33.4,93,58,23,30.16,30.01,22,3,25,0.00
2013-3-14,65.4,53.9,37.9,41.0,34.8,29.0,85,52,27,30.26,30.15,18,3,25,0.00
2013-3-15,73.0,51.3,30.9,48.5,36.1,28.7,96,63,28,30.28,30.12,14,1,18,0.00
2013-3-16,79.7,57.9,34.5,52.5,42.0,32.2,96,62,28,30.17,30.02,17,2,17,0.00
2013-3-17,76.8,63.5,43.1,60.5,52.0,40.4,96,69,41,30.13,29.98,23,3,23,0.00
2013-3-18,79.5,70.2,60.7,67.1,63.1,59.0,94,79,60,30.04,29.88,18,4,23,0.00
2013-3-19,84.9,71.7,60.8,66.3,62.0,58.8,96,74,46,30.03,29.87,14,2,23,0.00
2013-3-20,74.6,64.8,56.3,67.2,61.0,54.6,95,88,72,29.98,29.78,17,1,23,0.00
2013-3-21,70.7,59.0,43.9,55.7,42.0,29.9,96,59,23,29.97,29.85,16,3,23,0.00
2013-3-22,77.8,57.6,37.4,57.2,46.6,35.6,96,71,38,30.02,29.88,14,2,16,0.00
2013-3-23,86.3,70.9,56.4,73.6,64.3,54.0,96,81,60,29.97,29.75,26,4,26,0.00
2013-3-24,82.4,72.6,66.8,73.1,68.5,63.8,95,87,71,29.83,29.59,39,8,39,0.00
2013-3-25,70.3,63.3,53.8,64.3,46.7,32.1,92,59,25,30.02,29.68,20,5,39,0.00
2013-3-26,61.2,51.5,42.6,40.4,31.8,25.0,69,48,27,30.23,30.01,23,5,39,0.00
2013-3-27,63.4,47.4,30.1,38.2,32.6,26.2,91,60,29,30.30,30.18,19,2,39,0.00
2013-3-28,72.2,51.8,29.9,42.9,35.0,27.6,96,60,24,30.29,30.16,16,1,39,0.00
2013-3-29,74.7,55.0,34.8,50.3,37.6,32.7,96,60,23,30.32,30.17,15,1,39,0.00
2013-3-30,78.2,59.7,37.9,54.7,45.6,35.2,95,64,37,30.25,30.09,18,2,39,0.00
2013-3-31,83.1,66.7,52.2,58.0,53.1,47.5,90,65,34,30.16,29.97,22,4,39,0.00
2013-4-1,83.3,69.3,55.1,66.4,60.2,51.6,95,75,50,30.01,29.91,23,4,39,0.00
2013-4-2,84.1,64.9,54.3,63.7,57.4,48.7,98,81,34,30.08,29.97,19,1,39,0.00
2013-4-3,83.0,67.9,53.3,67.4,60.8,51.3,96,80,56,30.09,29.94,18,3,39,0.00
2013-4-4,74.2,69.7,64.9,69.2,66.6,62.5,96,90,80,30.01,29.84,25,4,39,0.00
2013-4-5,77.7,66.8,56.9,68.0,62.6,54.6,94,87,66,29.99,29.79,22,4,39,0.00
2013-4-6,75.8,63.4,51.4,60.6,55.9,49.3,94,78,57,30.15,29.98,18,3,39,0.00
2013-4-7,79.7,66.2,51.5,63.7,56.9,49.8,97,75,46,30.16,30.05,18,2,39,0.00
2013-4-8,84.7,69.1,52.5,65.5,58.9,50.7,97,73,43,30.14,30.04,19,3,39,0.00
2013-4-9,85.0,70.2,55.5,69.4,60.4,53.8,98,74,46,30.17,30.07,20,4,39,0.00
2013-4-10,61.7,57.5,54.6,56.6,54.5,52.2,93,90,83,30.13,30.07,4,0,39,0.00
2013-4-11,89.8,82.4,53.2,73.1,70.6,51.2,95,69,50,30.09,29.79,26,7,27,0.00
2013-4-12,83.7,76.9,73.2,75.0,72.2,69.8,94,86,68,29.89,29.79,22,6,27,0.00
2013-4-13,87.9,74.2,60.8,71.3,65.4,54.4,97,76,43,29.98,29.86,15,2,27,0.00
2013-4-14,89.5,71.7,57.3,74.2,65.9,54.2,93,83,57,29.98,29.81,18,3,27,0.00
2013-4-15,90.0,75.4,64.7,70.4,65.8,62.2,93,74,49,30.08,29.87,13,1,27,0.00
2013-4-16,86.8,74.7,66.3,72.7,67.5,62.9,96,80,60,30.15,30.04,16,2,27,0.00
2013-4-17,83.9,72.9,63.2,71.3,65.9,60.6,97,81,53,30.15,30.03,17,2,27,0.00
2013-4-18,89.2,75.1,59.9,71.1,65.5,58.5,98,75,45,30.05,29.93,15,2,27,0.00
2013-4-19,91.8,80.5,72.6,73.7,70.7,65.5,93,74,50,30.00,29.88,23,6,27,0.00
2013-4-20,77.1,63.4,56.6,71.0,60.3,54.3,94,90,75,30.17,29.94,15,3,27,0.00
2013-4-21,77.3,67.9,58.0,70.9,64.5,55.4,95,89,78,30.15,30.03,16,2,27,0.00
2013-4-22,76.8,67.9,62.8,69.9,65.4,60.1,97,92,78,30.08,29.99,19,4,27,0.00
2013-4-23,80.0,69.2,60.2,66.3,60.9,56.9,95,77,50,30.12,30.01,18,2,27,0.00
2013-4-24,86.5,69.9,50.9,65.7,59.3,49.2,97,73,41,30.14,30.04,15,2,18,0.00
2013-4-25,88.3,72.6,55.2,68.2,61.2,53.5,97,71,35,30.19,30.09,15,2,18,0.00
2013-4-26,86.5,72.9,58.4,68.8,63.9,56.7,97,75,50,30.24,30.14,16,2,18,0.00
2013-4-27,85.5,72.9,60.4,69.6,64.2,58.8,97,76,48,30.23,30.09,16,2,18,0.00
2013-4-28,82.7,71.0,58.1,69.2,63.6,56.4,97,79,57,30.14,29.98,23,5,23,0.00
2013-4-29,85.7,73.3,59.3,68.8,63.3,57.3,96,74,47,30.02,29.88,20,2,23,0.00
2013-4-30,87.9,73.1,65.1,71.2,66.7,63.0,97,82,50,30.01,29.89,18,1,23,0.00
2013-5-1,79.6,71.7,64.7,71.8,68.1,63.1,97,89,72,30.01,29.93,15,1,23,0.00
2013-5-2,70.1,68.7,65.4,68.9,67.3,63.9,97,96,94,29.96,29.80,12,1,23,0.00
2013-5-3,77.1,70.3,67.1,71.3,67.9,65.5,98,92,79,29.83,29.71,22,3,23,0.00
2013-5-4,82.8,73.2,67.9,73.0,69.1,66.2,97,88,69,29.77,29.65,15,2,23,0.00
2013-5-5,78.2,69.0,59.4,68.4,56.2,49.1,92,67,38,29.92,29.73,18,4,23,0.00
2013-5-6,76.0,66.8,59.4,60.0,55.9,51.8,93,69,47,29.99,29.86,23,3,23,0.00
2013-5-7,79.8,65.3,47.7,61.1,55.7,45.8,96,73,49,30.03,29.94,23,3,23,0.00
2013-5-8,82.5,68.8,53.0,65.0,59.2,51.3,98,74,46,30.12,30.00,14,2,23,0.00
2013-5-9,63.5,61.0,59.5,58.5,57.5,56.6,92,88,83,30.12,30.10,0,0,23,0.00
2013-5-10,91.0,80.1,56.8,72.1,67.3,51.9,97,67,48,30.14,29.98,15,3,17,0.00
2013-5-11,90.0,75.4,63.9,75.2,69.0,62.2,97,82,55,30.04,29.94,23,3,23,0.00
2013-5-12,89.1,76.5,65.2,71.8,67.7,63.7,97,76,52,30.02,29.92,19,2,23,0.00
2013-5-13,82.3,71.1,54.2,67.1,59.5,46.7,93,70,36,30.13,29.98,18,2,18,0.00
2013-5-14,83.0,65.6,44.9,57.5,51.0,42.7,96,64,33,30.21,30.11,15,1,16,0.00
2013-5-15,86.1,69.0,50.1,64.4,55.8,48.2,97,67,38,30.21,30.07,17,2,17,0.00
2013-5-16,63.8,59.5,56.9,56.5,55.3,54.0,91,86,77,30.10,30.05,0,0,16,0.00
2013-5-17,89.5,79.2,54.6,70.2,66.3,52.6,97,67,44,30.13,30.00,19,4,21,0.00
2013-5-18,91.7,76.9,60.9,73.2,67.4,59.2,97,75,43,30.12,29.99,17,2,21,0.00
2013-5-19,87.2,76.2,65.7,75.4,70.5,63.6,96,83,63,30.08,29.97,20,3,21,0.00
2013-5-20,89.4,73.9,68.0,73.9,69.0,66.0,96,86,54,30.07,29.96,14,0,21,0.00
2013-5-21,80.9,72.8,67.4,74.2,69.7,65.9,98,90,75,30.03,29.93,13,1,21,0.00
2013-5-22,86.3,74.5,64.7,74.9,69.4,63.2,98,85,62,29.97,29.89,16,2,21,0.00
2013-5-23,92.2,77.0,66.1,76.0,69.9,64.7,98,81,51,29.98,29.89,15,1,21,0.00
2013-5-24,93.0,79.9,65.1,74.8,67.9,63.6,98,70,41,30.09,29.95,19,2,21,0.00
2013-5-25,85.8,73.9,61.0,69.9,62.8,58.4,97,71,46,30.19,30.06,14,2,21,0.00
2013-5-26,86.4,70.0,51.6,65.1,57.9,49.7,97,69,40,30.21,30.13,15,1,21,0.00
2013-5-27,86.5,71.8,56.9,67.1,61.2,54.4,96,72,44,30.19,30.09,19,3,21,0.00
2013-5-28,88.2,75.2,59.6,72.2,67.0,57.5,96,77,58,30.15,30.06,21,4,21,0.00
2013-5-29,88.0,77.3,67.0,75.8,71.3,65.3,97,83,60,30.12,30.05,22,5,22,0.00
2013-5-30,85.5,76.9,69.9,76.1,72.1,68.1,96,86,68,30.12,30.04,26,5,27,0.00
2013-5-31,85.2,76.9,69.0,75.7,71.4,67.1,96,84,68,30.11,30.03,23,4,27,0.00
2013-6-1,86.8,77.7,69.7,76.9,72.8,67.6,96,86,69,30.07,29.97,24,4,27,0.00
2013-6-2,93.6,79.2,71.7,79.3,74.2,70.4,97,86,55,30.01,29.85,20,2,27,0.00
2013-6-3,91.9,79.8,70.6,76.9,73.5,69.3,98,82,56,29.99,29.85,18,3,27,0.00
2013-6-4,90.5,77.6,72.2,76.7,73.5,70.6,97,88,60,30.03,29.92,23,2,27,0.00
2013-6-5,86.5,74.9,70.4,77.7,72.2,69.2,97,92,65,30.01,29.90,19,2,27,0.00
2013-6-6,80.6,75.0,72.5,77.0,72.9,71.3,97,93,78,29.91,29.62,29,8,31,0.00
2013-6-7,91.1,80.8,72.0,76.1,73.4,70.2,96,79,58,29.94,29.72,29,5,31,0.00
2013-6-8,91.0,77.0,71.5,77.9,72.8,69.7,96,88,62,30.08,29.93,20,2,31,0.00
2013-6-9,91.5,77.5,70.3,78.1,74.1,69.4,98,90,63,30.10,30.01,17,1,18,0.00
2013-6-10,93.5,79.5,70.2,78.2,73.4,69.1,98,83,49,30.09,29.98,25,2,27,0.00
2013-6-11,92.2,78.4,71.9,79.9,74.4,70.6,98,88,61,30.07,30.01,10,1,27,0.00
2013-6-15,94.3,82.7,76.8,78.5,74.8,71.2,92,77,57,30.06,29.81,17,3,20,0.00
2013-6-16,88.8,80.9,76.1,80.6,75.7,71.6,95,85,70,30.07,30.01,17,2,20,0.00
2013-6-17,93.0,81.9,74.5,80.7,76.4,72.8,97,84,60,30.06,29.94,19,2,19,0.00
2013-6-18,92.5,82.5,73.1,79.9,75.5,71.6,96,81,61,30.04,29.92,20,2,21,0.00
2013-6-19,91.3,81.6,72.2,78.7,74.9,70.7,98,81,60,30.02,29.92,15,2,21,0.00
2013-6-20,93.8,79.2,70.4,78.2,73.0,69.1,98,83,51,30.07,29.98,19,2,21,0.00
2013-6-21,91.2,77.7,68.9,77.3,72.5,67.7,98,85,60,30.10,30.03,17,1,23,0.00
2013-6-25,92.0,85.3,75.1,76.9,73.4,70.9,90,68,55,30.12,30.02,15,3,23,0.00
2013-6-26,93.3,79.2,70.7,78.5,73.6,69.2,97,84,53,30.07,29.98,22,2,24,0.00
2013-6-27,92.0,79.3,68.8,79.0,73.5,67.6,98,84,62,30.03,29.91,17,1,24,0.00
2013-6-28,92.3,80.9,74.0,79.1,75.2,72.2,96,84,61,29.95,29.82,20,3,24,0.00
2013-6-29,89.5,80.3,75.4,79.1,75.5,72.6,95,86,63,29.85,29.76,20,4,24,0.00
2013-6-30,85.8,78.1,74.6,80.8,74.7,72.7,95,89,77,29.86,29.78,19,4,24,0.00
2013-7-1,83.8,76.9,72.7,76.3,73.5,70.9,95,89,77,30.02,29.83,21,6,24,0.00
2013-7-2,85.0,76.9,72.6,80.3,74.2,71.1,97,92,76,30.08,29.96,17,2,24,0.00
2013-7-3,89.0,77.0,72.0,79.4,74.2,70.8,98,92,69,30.11,30.04,23,2,30,0.00
2013-7-4,91.3,77.5,71.3,78.3,73.2,68.9,98,88,61,30.15,30.06,24,3,30,0.00
2013-7-5,88.7,78.9,70.4,79.9,74.1,69.2,98,86,63,30.14,30.05,23,4,30,0.00
2013-7-6,91.9,80.8,70.5,78.3,74.1,69.3,98,82,58,30.11,30.03,20,4,30,0.00
2013-7-7,91.0,81.2,71.8,78.0,74.5,70.3,98,81,60,30.12,30.03,19,4,30,0.00
2013-7-8,92.5,81.4,70.9,78.3,74.2,69.3,98,80,57,30.15,30.06,19,2,30,0.00
2013-7-9,91.7,80.3,68.8,77.5,72.2,67.2,98,78,53,30.15,30.05,15,1,30,0.00
2013-7-10,91.8,79.3,69.0,77.2,72.5,67.5,97,81,58,30.08,29.94,13,1,30,0.00
2013-7-11,74.8,73.5,72.2,72.6,71.8,70.6,95,94,93,30.02,29.98,2,0,30,0.00
2013-7-12,93.1,81.2,71.0,77.9,75.0,69.5,98,82,59,30.00,29.87,14,2,19,0.00
2013-7-13,92.2,77.3,69.9,77.2,72.8,68.4,98,87,56,29.99,29.88,21,2,21,0.00
2013-7-14,88.8,76.6,70.3,77.6,73.2,69.1,98,90,67,30.05,29.96,18,2,21,0.00
2013-7-15,84.5,79.8,69.6,78.3,75.4,67.9,98,87,77,30.12,30.01,13,2,22,0.00
2013-7-16,90.3,79.7,72.8,77.6,73.8,71.1,96,83,61,30.15,30.08,27,3,27,0.00
2013-7-17,90.0,79.7,72.8,78.3,74.2,70.3,97,84,62,30.16,30.06,23,2,27,0.00
2013-7-18,87.8,78.4,71.8,77.0,73.3,70.5,97,85,62,30.11,30.03,22,2,27,0.00
2013-7-19,90.6,77.0,70.6,77.1,72.9,69.4,97,88,63,30.12,30.02,16,2,27,0.00
2013-7-20,90.6,77.6,73.2,79.6,74.4,70.7,97,91,65,30.09,29.99,18,1,27,0.00
2013-7-21,92.2,78.5,72.0,80.9,74.7,71.1,98,89,65,30.11,30.00,14,1,27,0.00
2013-7-22,89.8,78.1,73.8,79.8,75.1,71.3,97,91,69,30.11,30.03,20,2,27,0.00
2013-7-23,83.6,76.4,72.5,79.0,74.1,71.3,98,93,81,30.06,29.94,18,2,27,0.00
2013-7-24,86.0,78.8,73.5,79.4,76.0,71.7,97,91,77,29.98,29.84,18,3,27,0.00
2013-7-25,85.9,79.2,74.5,79.0,75.7,72.6,95,89,77,29.96,29.83,22,2,27,0.00
2013-7-26,93.2,80.8,71.5,80.5,75.1,70.3,98,84,59,29.99,29.92,12,0,27,0.00
2013-7-27,93.9,80.8,72.3,80.6,75.2,70.8,98,84,60,29.99,29.86,16,1,27,0.00
2013-7-28,90.4,77.6,70.0,79.0,73.9,68.5,98,89,67,30.05,29.91,14,1,27,0.00
2013-7-29,92.8,79.3,70.0,79.4,74.7,69.1,98,87,60,30.13,30.00,20,1,27,0.00
2013-7-30,94.0,82.0,72.3,79.8,75.8,71.1,98,83,52,30.16,30.05,18,1,27,0.00
2013-7-31,93.7,80.2,71.2,79.8,75.1,69.4,97,86,57,30.11,29.98,25,1,29,0.00
2013-8-1,91.0,78.1,71.3,79.3,74.0,70.4,98,88,60,30.05,29.94,15,1,29,0.00
2013-8-2,92.6,80.6,70.5,78.9,73.9,69.3,98,82,57,30.02,29.92,12,0,29,0.00
2013-8-3,93.0,80.3,73.6,80.6,75.6,72.4,98,87,59,30.06,29.97,19,2,29,0.00
2013-8-4,88.4,79.8,74.5,80.9,76.7,73.3,98,91,74,30.06,29.95,21,2,29,0.00
2013-8-5,92.8,81.5,75.1,82.5,77.1,73.2,98,88,61,30.00,29.88,21,1,29,0.00
2013-8-6,92.8,79.8,73.3,80.9,76.2,71.9,98,89,65,29.96,29.87,19,0,29,0.00
2013-8-7,92.7,81.1,73.9,80.7,76.9,73.0,98,88,63,29.97,29.89,11,1,29,0.00
2013-8-8,92.7,81.8,73.8,80.0,76.1,72.7,98,84,59,30.03,29.93,20,2,29,0.00
2013-8-9,91.1,80.1,71.7,80.4,75.4,70.7,99,86,62,30.05,29.96,18,1,29,0.00
2013-8-10,94.1,81.3,69.6,81.6,75.4,68.4,98,83,59,30.11,30.02,13,1,29,0.00
2013-8-11,95.0,82.4,71.8,80.2,75.2,70.6,98,81,53,30.13,30.03,12,1,29,0.00
2013-8-12,94.3,85.4,70.9,80.7,76.7,69.7,98,76,56,30.10,29.97,12,1,15,0.00
2013-8-13,96.4,82.9,72.8,79.5,74.9,71.3,98,79,48,30.03,29.90,13,1,15,0.00
2013-8-14,95.3,81.0,73.0,80.3,75.5,71.5,97,85,57,29.99,29.86,20,1,21,0.00
2013-8-15,94.1,80.2,73.1,76.6,73.9,71.2,97,83,55,30.01,29.89,11,1,21,0.00
2013-8-16,91.5,81.6,74.5,79.7,75.8,72.3,96,83,57,30.04,29.93,23,2,23,0.00
2013-8-17,94.0,80.0,74.3,80.8,75.8,72.7,97,88,62,30.08,29.95,33,1,33,0.00
2013-8-18,92.2,80.3,72.3,80.2,75.9,71.5,99,87,63,30.09,29.99,25,2,33,0.00
2013-8-19,89.5,79.4,72.8,80.5,75.3,71.6,98,88,68,30.07,29.95,15,1,33,0.00
2013-8-20,93.7,81.8,72.2,79.9,75.4,71.0,98,83,56,30.08,29.97,17,2,33,0.00
2013-8-21,89.7,77.9,73.3,80.4,75.1,70.5,97,91,71,30.10,30.02,29,1,33,0.00
2013-8-22,90.2,78.7,74.7,80.9,76.0,72.2,97,92,71,30.08,29.98,26,1,33,0.00
2013-8-23,90.3,77.2,71.9,80.3,74.8,70.1,98,93,68,30.02,29.95,14,0,33,0.00
2013-8-24,88.4,75.6,72.2,80.8,74.1,71.0,98,95,77,30.11,29.99,11,0,33,0.00
2013-8-25,86.1,78.0,71.9,78.7,75.0,70.7,98,91,77,30.15,30.06,12,0,19,0.00
2013-8-26,87.5,78.4,73.2,78.5,74.6,71.7,97,89,71,30.13,30.01,17,2,19,0.00
2013-8-27,88.4,78.7,71.5,77.3,72.8,68.5,98,83,61,30.06,29.98,14,2,19,0.00
2013-8-28,90.3,78.1,66.6,75.7,70.4,65.1,97,79,54,30.05,29.95,11,0,19,0.00
2013-8-29,94.0,80.2,68.1,77.2,72.3,66.8,98,79,49,30.02,29.89,17,1,19,0.00
2013-8-30,94.5,82.3,72.4,79.7,74.6,71.0,97,80,50,29.96,29.85,14,1,19,0.00
2013-8-31,90.0,80.2,73.1,79.1,74.6,69.7,98,84,64,29.95,29.85,23,2,23,0.00
2013-9-1,93.0,79.6,69.9,78.2,73.6,68.7,98,84,58,29.97,29.86,13,1,23,0.00
2013-9-2,93.3,85.3,71.5,77.9,75.1,70.6,97,73,56,29.99,29.87,15,3,24,0.00
2013-9-3,91.7,81.1,72.0,79.1,75.4,70.8,98,84,60,30.00,29.89,24,1,24,0.00
2013-9-4,92.0,80.0,72.4,80.1,75.3,70.3,97,86,64,30.07,29.95,16,1,24,0.00
2013-9-5,94.0,80.3,69.1,79.1,73.5,67.9,98,82,54,30.08,29.98,14,0,24,0.00
2013-9-6,93.2,77.4,72.0,80.7,74.0,69.6,98,90,59,30.04,29.95,19,1,24,0.00
2013-9-7,88.3,77.3,71.2,78.8,73.2,69.5,98,88,64,30.00,29.91,12,1,24,0.00
2013-9-8,88.0,78.0,69.5,77.2,72.3,67.9,98,84,64,29.96,29.86,12,1,24,0.00
2013-9-9,90.0,77.3,64.7,75.9,70.1,63.5,98,80,54,30.03,29.92,23,1,24,0.00
2013-9-10,89.3,78.1,69.4,75.7,71.4,67.7,97,81,57,30.09,29.99,21,2,24,0.00
2013-9-11,90.8,80.5,70.6,76.3,72.4,68.9,96,78,60,30.07,29.98,18,1,24,0.00
2013-9-12,89.0,78.0,69.8,78.2,72.9,68.6,98,85,64,30.01,29.87,15,1,19,0.00
2013-9-13,92.6,78.9,68.8,78.6,72.8,67.6,98,83,53,29.90,29.75,12,0,19,0.00
2013-9-14,94.4,81.0,70.4,77.7,74.0,69.2,98,81,52,29.96,29.80,11,0,19,0.00
2013-9-15,93.5,80.3,72.0,79.7,74.7,70.8,98,84,55,30.06,29.95,21,2,25,0.00
2013-9-16,93.0,79.9,70.1,77.1,73.3,68.9,98,82,54,30.07,29.96,21,2,25,0.00
2013-9-17,89.6,78.9,69.3,78.6,73.0,68.1,98,83,62,30.05,29.94,17,2,25,0.00
2013-9-18,88.7,79.3,73.3,77.6,73.5,70.9,94,83,63,30.03,29.97,21,2,25,0.00
2013-9-19,88.8,78.6,70.0,76.5,73.0,67.8,96,84,60,30.04,29.96,18,2,25,0.00
2013-9-20,87.0,75.5,64.5,75.1,69.3,63.3,98,83,62,30.02,29.89,12,1,25,0.00
2013-9-21,91.0,77.2,63.5,74.4,69.2,62.3,98,79,48,29.93,29.74,11,1,25,0.00
2013-9-22,90.5,77.9,71.8,78.1,73.6,68.9,96,87,64,29.84,29.73,18,2,25,0.00
2013-9-23,82.6,75.9,73.4,79.2,74.7,72.2,98,96,87,29.94,29.81,13,1,25,0.00
2013-9-24,83.5,76.3,71.9,77.8,74.2,69.9,98,94,80,29.94,29.80,15,2,25,0.00
2013-9-25,83.0,76.8,72.8,75.8,73.5,71.0,97,90,77,29.82,29.74,17,3,25,0.00
2013-9-26,89.0,80.1,71.3,79.4,74.2,68.5,97,84,53,29.86,29.74,18,3,25,0.00
2013-9-27,79.3,73.5,68.9,75.0,70.9,67.5,96,92,85,29.96,29.83,18,1,25,0.00
2013-9-28,81.1,74.3,69.9,75.9,71.3,68.3,97,90,79,30.01,29.90,14,1,25,0.00
2013-9-29,85.8,74.8,66.8,74.6,69.8,65.3,97,85,65,29.98,29.90,13,1,25,0.00
2013-9-30,87.7,75.2,65.9,74.4,69.7,64.7,98,84,59,30.00,29.90,12,1,25,0.00
2013-10-1,87.5,76.5,69.7,75.8,71.2,67.6,96,84,65,30.06,29.97,13,1,25,0.00
2013-10-2,86.0,74.7,65.2,73.4,68.3,63.6,97,82,62,30.06,29.98,10,1,25,0.00
2013-10-3,89.3,75.8,64.0,76.1,69.3,62.5,98,82,56,30.06,29.97,15,1,25,0.00
2013-10-4,89.7,76.9,66.9,76.7,71.1,65.8,98,84,57,30.07,29.97,11,1,25,0.00
2013-10-5,89.0,77.2,64.8,76.7,70.7,63.6,98,82,62,30.05,29.94,16,1,25,0.00
2013-10-6,91.2,75.9,66.7,76.8,70.8,65.5,98,86,53,29.97,29.83,18,2,25,0.00
2013-10-7,82.8,74.5,67.4,77.3,72.4,66.2,99,93,80,29.86,29.71,16,2,25,0.00
2013-10-8,85.3,76.3,72.3,77.5,73.6,70.1,98,92,76,29.95,29.75,23,4,25,0.00
2013-10-9,76.2,71.7,68.6,70.3,69.0,66.2,95,91,81,30.02,29.92,12,4,25,0.00
2013-10-10,83.5,67.2,64.2,66.6,64.0,58.8,93,90,85,30.05,29.96,7,0,14,0.00
2013-10-11,86.3,70.5,57.6,72.6,64.0,56.2,98,82,53,30.04,29.92,12,1,14,0.00
2013-10-12,85.6,70.5,57.9,71.0,62.4,56.7,98,78,48,30.03,29.95,13,1,14,0.00
2013-10-13,85.3,71.8,58.1,70.1,62.9,56.7,98,76,48,30.08,29.97,13,1,14,0.00
2013-10-14,83.3,72.4,62.9,70.8,67.1,60.5,97,84,62,30.04,29.92,16,2,16,0.00
2013-10-15,78.0,72.5,66.9,72.3,69.4,64.8,96,90,81,29.99,29.89,11,1,16,0.00
2013-10-16,87.5,76.0,70.3,73.8,70.6,67.8,97,85,57,29.97,29.88,12,0,16,0.00
2013-10-17,89.5,76.3,65.6,75.2,69.6,64.4,98,82,51,29.98,29.87,12,1,16,0.00
2013-10-18,89.2,76.8,64.5,75.6,69.7,63.2,98,81,56,29.98,29.88,13,1,16,0.00
2013-10-19,90.4,77.7,65.4,76.1,71.0,63.9,98,82,54,29.94,29.84,16,2,17,0.00
2013-10-20,85.0,76.5,71.4,75.3,72.1,68.4,97,87,69,29.97,29.85,12,1,17,0.00
2013-10-21,89.8,75.7,69.0,78.6,72.4,67.5,97,90,62,29.99,29.88,17,0,17,0.00
2013-10-22,90.3,78.2,70.7,77.3,72.5,69.3,98,84,57,29.94,29.79,19,2,20,0.00
2013-10-23,80.2,71.4,56.8,71.1,63.4,52.9,95,78,43,30.00,29.78,16,2,20,0.00
2013-10-24,71.8,61.1,52.4,58.5,53.0,48.7,91,75,55,30.16,30.00,12,1,20,0.00
2013-10-25,78.8,62.5,47.4,58.9,53.3,45.8,97,75,47,30.24,30.13,12,1,20,0.00
2013-10-26,77.3,61.9,47.6,59.0,52.6,45.7,96,75,42,30.21,30.09,10,1,20,0.00
2013-10-27,77.7,61.3,46.7,60.6,52.4,45.1,97,76,43,30.14,30.04,11,1,20,0.00
2013-10-28,82.5,63.8,45.3,64.9,56.2,43.7,97,79,50,30.19,30.09,9,0,20,0.00
2013-10-29,82.3,69.8,59.1,68.5,63.7,57.1,97,82,59,30.23,30.14,18,2,20,0.00
2013-10-30,83.2,71.3,60.9,71.1,65.2,59.2,97,83,57,30.23,30.10,14,1,20,0.00
2013-10-31,86.5,72.2,58.7,71.6,64.9,57.4,98,80,49,30.14,29.97,17,2,20,0.00
2013-11-1,89.7,76.8,67.8,73.1,69.0,64.7,97,79,49,30.00,29.84,23,4,23,0.00
2013-11-2,74.8,68.2,57.2,72.7,66.1,55.8,96,93,87,29.97,29.78,17,1,23,0.00
2013-11-3,73.7,63.8,53.2,59.4,52.9,49.2,98,70,44,30.12,29.95,20,3,23,0.00
2013-11-4,79.0,67.6,58.2,66.3,60.1,54.6,93,78,48,30.19,30.10,18,2,20,0.00
2013-11-5,83.0,71.9,64.1,69.1,66.3,62.3,95,84,58,30.17,30.09,21,2,21,0.00
2013-11-6,81.7,70.8,62.6,71.5,66.7,61.0,97,88,64,30.13,30.03,18,2,21,0.00
2013-11-7,77.3,70.0,62.1,71.0,67.5,60.7,98,92,79,30.05,29.94,8,0,8,0.00
2013-11-8,73.3,65.4,59.6,65.3,60.7,52.7,97,85,73,30.13,29.98,20,4,20,0.00
2013-11-9,79.5,66.9,57.0,66.5,60.7,55.0,96,82,61,30.18,30.11,22,2,22,0.00
2013-11-10,79.9,68.7,57.7,68.9,63.8,55.8,97,85,62,30.18,30.08,11,1,12,0.00
2013-11-11,81.3,68.9,60.3,69.2,63.7,58.1,96,85,62,30.17,30.06,12,1,12,0.00
2013-11-12,77.3,67.0,58.4,70.2,63.3,56.8,98,88,68,30.11,29.99,10,0,12,0.00
2013-11-13,63.1,58.1,52.6,59.2,50.3,46.8,89,76,61,30.33,30.08,27,8,28,0.00
2013-11-14,73.0,56.8,48.0,56.2,51.1,46.4,94,82,59,30.30,30.18,7,0,28,0.00
2013-11-15,70.6,62.9,51.5,65.0,60.3,49.5,96,91,80,30.20,30.07,13,1,23,0.00
2013-11-16,76.4,68.8,64.3,71.9,67.0,63.1,97,94,83,30.14,30.03,11,0,23,0.00
2013-11-17,85.3,74.5,66.6,74.5,70.0,65.5,98,87,63,30.08,29.97,13,2,23,0.00
2013-11-18,81.4,73.2,65.3,73.5,69.1,64.1,98,87,73,30.02,29.90,12,1,23,0.00
2013-11-19,74.2,68.6,63.0,69.1,63.0,55.8,97,83,63,29.98,29.87,15,2,23,0.00
2013-11-20,79.0,70.4,63.8,71.5,66.5,61.3,95,88,74,30.12,29.96,15,1,23,0.00
2013-11-21,78.5,71.0,67.4,72.3,68.5,65.9,96,92,80,30.20,30.10,16,2,23,0.00
2013-11-22,81.0,72.6,62.6,71.8,67.5,60.5,96,85,66,30.21,30.10,19,2,23,0.00
2013-11-23,84.3,70.3,58.8,70.0,64.0,57.4,98,82,54,30.11,29.99,12,0,19,0.00
2013-11-24,68.2,63.0,58.2,65.6,57.2,50.9,93,82,73,30.25,30.02,25,6,26,0.00
2013-11-25,75.7,66.5,59.3,60.2,56.9,52.6,88,72,54,30.25,30.08,21,4,26,0.00
2013-11-26,77.2,70.8,61.6,72.6,67.9,57.9,96,91,81,30.08,29.72,17,5,26,0.00
2013-11-27,73.7,60.1,39.8,71.6,55.2,35.6,96,84,70,30.20,29.67,29,6,29,0.00
2013-11-28,63.0,47.8,33.4,52.2,41.9,30.1,89,80,66,30.35,30.20,15,4,22,0.00
2013-11-29,69.0,57.1,47.4,60.0,52.3,45.3,96,85,66,30.38,30.28,20,4,22,0.00
2013-11-30,75.2,63.3,55.7,64.8,59.3,52.8,96,87,65,30.32,30.20,19,5,20,0.00
2013-12-1,72.8,63.1,60.3,65.9,61.2,57.4,98,94,76,30.20,29.97,12,3,20,0.00
2013-12-2,73.3,61.1,49.8,63.0,57.2,47.8,98,88,58,29.97,29.81,14,1,14,0.00
2013-12-3,77.8,61.3,46.6,62.4,55.4,45.3,100,83,57,29.99,29.87,13,2,14,0.00
2013-12-4,82.1,65.8,53.6,70.8,61.0,52.2,98,86,58,30.08,29.96,12,1,14,0.00
2013-12-5,83.0,68.4,55.4,70.4,62.7,54.2,98,84,58,30.17,30.07,14,1,14,0.00
2013-12-6,85.2,70.5,58.6,72.3,65.3,57.5,98,85,59,30.17,30.07,19,2,21,0.00
2013-12-7,84.3,70.1,59.4,70.8,64.1,58.1,98,83,53,30.23,30.12,12,1,21,0.00
2013-12-8,84.3,69.2,57.6,72.2,63.8,56.5,98,85,57,30.23,30.09,15,2,21,0.00
2013-12-9,84.2,69.7,57.5,72.9,64.5,56.3,98,85,58,30.18,30.07,18,2,21,0.00
2013-12-10,84.3,71.7,58.1,71.4,65.4,56.1,98,82,58,30.20,30.04,22,4,22,0.00
2013-12-11,80.3,66.0,55.1,69.2,60.7,51.9,92,84,68,30.25,30.14,13,3,22,0.00
2013-12-12,67.3,58.4,44.1,58.4,46.5,28.8,94,68,28,30.33,30.20,18,4,22,0.00
2013-12-13,73.8,58.1,45.5,57.2,50.7,41.7,95,78,50,30.28,30.13,20,2,20,0.00
2013-12-14,82.5,68.3,52.0,71.1,63.2,50.0,96,85,66,30.13,29.91,22,4,24,0.00
2013-12-15,73.5,65.7,57.5,70.6,62.0,54.6,95,88,77,30.12,29.84,23,3,23,0.00
2013-12-16,61.5,50.0,37.1,54.6,43.8,34.6,94,81,46,30.23,30.12,15,2,15,0.00
2013-12-17,70.5,50.3,35.1,53.5,44.0,33.0,96,81,54,30.26,30.14,11,1,11,0.00
2013-12-18,67.0,49.7,36.6,49.4,42.2,34.8,95,78,51,30.29,30.19,15,2,15,0.00
2013-12-19,74.7,53.5,34.4,60.0,47.2,32.6,97,81,55,30.29,30.17,11,1,11,0.00
2013-12-20,82.5,62.8,43.8,64.9,55.7,42.2,98,80,53,30.21,30.10,14,2,14,0.00
2013-12-21,84.6,70.0,54.5,71.6,64.6,52.8,98,84,61,30.14,30.01,26,4,26,0.00
2013-12-22,85.1,72.6,61.8,72.9,67.4,60.4,98,85,62,30.13,30.05,23,3,23,0.00
2013-12-23,86.3,74.5,63.1,73.7,69.1,61.7,98,85,59,30.16,30.05,20,4,20,0.00
2013-12-24,72.7,60.7,47.5,71.2,52.3,37.0,98,76,38,30.27,30.07,19,4,19,0.00
2013-12-25,71.8,56.4,42.5,59.3,49.9,38.7,94,80,63,30.26,30.15,13,2,13,0.00
2013-12-26,74.5,60.7,55.2,63.9,57.3,53.7,96,89,66,30.23,30.10,16,4,16,0.00
2013-12-27,67.2,61.6,55.9,63.9,59.3,53.9,95,92,88,30.26,30.17,16,4,16,0.00
2013-12-28,75.8,68.4,62.8,71.4,66.6,61.0,97,94,83,30.23,30.00,13,4,13,0.00
2013-12-29,76.0,71.2,64.4,74.1,69.3,63.0,96,94,89,30.01,29.87,16,4,16,0.00
2013-12-30,68.1,59.7,52.0,62.9,55.2,48.3,97,86,53,30.20,29.97,13,2,13,0.00
2013-12-31,67.5,58.6,50.8,54.4,51.8,49.1,96,80,56,30.31,30.17,15,2,15,0.00
2014-1-1,63.2,59.3,56.3,61.7,57.4,52.8,97,93,86,30.26,30.06,15,2,15,0.00
2014-1-2,77.3,65.6,56.7,72.6,64.3,53.5,99,95,81,30.06,29.80,27,4,27,0.00